This is the latest recevied weather packets stored in our database for station/object JH1LWU-13. If no packets are shown the sender has not sent any weather packets the latest 10 day(s).
| Time | Temp. | Humidity | Pressure | Rain* | Wind** | Luminosity | Snow |
|---|---|---|---|---|---|---|---|
| 1778245636 | 21.11° C | 53% | 996 hPa | 0 mm | - | - | - |
| 1778243835 | 21.11° C | 55% | 998 hPa | 0 mm | - | - | - |
| 1778242034 | 21.11° C | 58% | 998 hPa | 0 mm | - | - | - |
| 1778240233 | 20.56° C | 64% | 998 hPa | 0 mm | - | - | - |
| 1778238432 | 21.11° C | 65% | 996 hPa | 0 mm | - | - | - |
| 1778236631 | 21.11° C | 64% | 996 hPa | 0 mm | - | - | - |
| 1778234830 | 20.56° C | 66% | 998 hPa | 0 mm | - | - | - |
| 1778233029 | 21.11° C | 63% | 998 hPa | 0 mm | - | - | - |
| 1778231228 | 20.56° C | 67% | 998 hPa | 0 mm | - | - | - |
| 1778229427 | 20.56° C | 68% | 998 hPa | 0 mm | - | - | - |
| 1778227626 | 20.56° C | 66% | 997 hPa | 0 mm | - | - | - |
| 1778225825 | 21.11° C | 63% | 999 hPa | 0 mm | - | - | - |
| 1778224024 | 22.22° C | 65% | 998 hPa | 0 mm | - | - | - |
| 1778222223 | 22.78° C | 65% | 1000 hPa | 0 mm | - | - | - |
| 1778220422 | 22.78° C | 65% | 997 hPa | 0 mm | - | - | - |
| 1778218621 | 22.22° C | 65% | 1000 hPa | 0 mm | - | - | - |
| 1778216820 | 22.78° C | 65% | 1000 hPa | 0 mm | - | - | - |
| 1778215019 | 22.78° C | 65% | 1000 hPa | 0 mm | - | - | - |
| 1778213218 | 23.33° C | 64% | 1000 hPa | 0 mm | - | - | - |
| 1778211417 | 22.78° C | 64% | 1001 hPa | 0 mm | - | - | - |
| 1778209616 | 23.33° C | 64% | 1001 hPa | 0 mm | - | - | - |
| 1778207815 | 23.89° C | 61% | 1003 hPa | 0 mm | - | - | - |
| 1778206014 | 24.44° C | 58% | 1002 hPa | 0 mm | - | - | - |
| 1778204213 | 24.44° C | 55% | 1002 hPa | 0 mm | - | - | - |
| 1778202412 | 25° C | 54% | 1003 hPa | 0 mm | - | - | - |
* Rain latest hour (hover to see other rain measurements)
** Current wind speed in m/s (hover to see current wind gust speed)